Weather History for Tacoma, WA

Change the Weather History Date:

Sunday, February 17, 2013

  Actual Average Record
Temperature  
Mean Temperature 40 °F -  
Max Temperature 46 °F 48 °F 62 °F (2007)
Min Temperature 33 °F 30 °F 16 °F (1993)
Degree Days  
Heating Degree Days 26    
Moisture  
Dew Point 36 °F    
Average Humidity 88    
Maximum Humidity 100    
Minimum Humidity 63    
Precipitation  
Precipitation 0.02 in - - ()
Sea Level Pressure  
Sea Level Pressure 30.20 in    
Wind  
Wind Speed 8 mph (SSW)    
Max Wind Speed 13 mph    
Max Gust Speed -    
Visibility 10 miles    
Events Rain    
Averages and records for this station are not official NWS values.
T = Trace of Precipitation, MM = Missing Value Source: NWS Daily Summary

Daily Weather History Graph

Daily Weather History Graph

Search for Another Location

Airport:

Trip Planner

Search our weather history database for the weather conditions in past years. The results will help you decide how hot, cold, wet, or windy it might be!

Date:

Astronomy

Feb. 17, 2013 Rise Set
Actual Time 7:10 AM PST 5:37 PM PST
Civil Twilight 6:39 AM PST 6:09 PM PST
Nautical Twilight 6:03 AM PST 6:44 PM PST
Astronomical Twilight 5:28 AM PST 7:20 PM PST
Moon 10:36 AM PST (2/17) 1:08 AM PST (2/17)
Length of Visible Light 11h 29m
Length of Day
10h 27m
Waxing Crescent, 50% of the Moon is Illuminated
Feb 17
Waxing Crescent
Feb 17
First Quarter
Feb 25
Full
Mar 4
Last Quarter
Mar 11
New

Hourly Weather History & Observations

Time (PST) Temp. Windchill Dew Point Humidity Pressure Visibility Wind Dir Wind Speed Gust Speed Precip Events Conditions
12:58 AM 35.2 °F 28.1 °F 34.3 °F 97% 30.24 in 10.0 mi South 9.2 mph - N/A   Scattered Clouds
1:58 AM 35.4 °F 28.4 °F 34.0 °F 94% 30.25 in 10.0 mi South 9.2 mph - N/A   Clear
2:58 AM 35.1 °F 27.9 °F 34.2 °F 97% 30.25 in 10.0 mi South 9.2 mph - N/A   Clear
3:58 AM 34.7 °F 28.1 °F 34.0 °F 97% 30.25 in 10.0 mi South 8.1 mph - N/A   Scattered Clouds
4:43 AM 35.6 °F 29.2 °F 33.8 °F 93% 30.23 in 10.0 mi South 8.1 mph - N/A   Mostly Cloudy
4:58 AM 35.4 °F 28.4 °F 34.7 °F 97% 30.24 in 10.0 mi South 9.2 mph - N/A   Overcast
5:58 AM 37.6 °F 31.6 °F 35.1 °F 91% 30.25 in 10.0 mi SSW 8.1 mph - N/A   Overcast
6:58 AM 37.2 °F 30.6 °F 35.1 °F 92% 30.25 in 10.0 mi South 9.2 mph - N/A   Overcast
7:53 AM 33.8 °F 27.0 °F 33.8 °F 100% 30.24 in 10.0 mi South 8.1 mph - N/A   Scattered Clouds
7:58 AM 34.5 °F 27.9 °F 33.8 °F 97% 30.26 in 10.0 mi South 8.1 mph - N/A   Partly Cloudy
8:58 AM 40.1 °F 34.1 °F 35.6 °F 84% 30.26 in 10.0 mi SSW 9.2 mph - N/A   Clear
9:58 AM 41.9 °F 35.9 °F 35.8 °F 79% 30.27 in 10.0 mi SSW 10.4 mph - N/A   Clear
10:58 AM 43.5 °F 37.1 °F 35.8 °F 74% 30.26 in 10.0 mi SW 12.7 mph - N/A   Overcast
11:58 AM 45.1 °F 39.9 °F 35.6 °F 69% 30.25 in 10.0 mi SW 10.4 mph - N/A   Overcast
12:58 PM 46.0 °F 41.0 °F 34.2 °F 63% 30.24 in 10.0 mi SW 10.4 mph - N/A   Overcast
1:38 PM 46.4 °F 42.9 °F 35.6 °F 66% 30.22 in 10.0 mi SSW 6.9 mph - N/A   Overcast
1:58 PM 45.5 °F 42.5 °F 33.8 °F 64% 30.23 in 10.0 mi SSW 5.8 mph - N/A   Overcast
2:58 PM 46.0 °F 41.9 °F 34.2 °F 63% 30.22 in 10.0 mi SW 8.1 mph - N/A   Overcast
3:58 PM 46.2 °F 41.7 °F 35.2 °F 66% 30.21 in 10.0 mi SSW 9.2 mph - N/A   Overcast
4:58 PM 43.5 °F 40.9 °F 36.1 °F 75% 30.20 in 10.0 mi SW 4.6 mph - N/A   Scattered Clouds
5:58 PM 39.4 °F - 35.4 °F 86% 30.19 in 10.0 mi South 2.3 mph - N/A   Scattered Clouds
6:58 PM 41.0 °F 38.0 °F 36.9 °F 85% 30.18 in 10.0 mi SW 4.6 mph - N/A   Mostly Cloudy
7:58 PM 41.5 °F 39.6 °F 37.0 °F 84% 30.18 in 10.0 mi SSW 3.5 mph - N/A   Overcast
8:58 PM 41.2 °F 39.2 °F 37.4 °F 86% 30.18 in 10.0 mi SSW 3.5 mph - N/A   Mostly Cloudy
9:22 PM 41.0 °F 37.1 °F 37.4 °F 87% 30.16 in 10.0 mi SW 5.8 mph - N/A Rain Light Rain
9:37 PM 41.0 °F 38.0 °F 39.2 °F 93% 30.15 in 10.0 mi WSW 4.6 mph - N/A Rain Light Rain
9:58 PM 40.1 °F - 38.5 °F 94% 30.17 in 10.0 mi SW 2.3 mph - 0.02 in Rain Light Rain
10:03 PM 39.2 °F - 39.2 °F 100% 30.14 in 10.0 mi SSW 2.3 mph - N/A Rain Light Rain
10:04 PM 39.2 °F - 39.2 °F 100% 30.14 in 10.0 mi SSW 2.3 mph - N/A   Mostly Cloudy
10:07 PM 39.2 °F - 39.2 °F 100% 30.14 in 10.0 mi South 2.3 mph - N/A Rain Light Rain
10:34 PM 39.2 °F 37.0 °F 39.2 °F 100% 30.14 in 10.0 mi South 3.5 mph - N/A   Overcast
10:39 PM 39.2 °F 37.0 °F 39.2 °F 100% 30.14 in 10.0 mi SSE 3.5 mph - N/A   Mostly Cloudy
10:58 PM 38.7 °F - 38.5 °F 99% 30.15 in 10.0 mi South 2.3 mph - 0.00 in   Mostly Cloudy
11:43 PM 39.2 °F 37.0 °F 37.4 °F 93% 30.12 in 10.0 mi SSE 3.5 mph - N/A   Overcast
11:58 PM 38.3 °F 34.8 °F 37.9 °F 99% 30.13 in 10.0 mi SE 4.6 mph - N/A   Overcast